Location: Jackson Park
(37.2862°N, 79.9123°W)
Time: 14:16:18
(UTC+00:00)

Vanguard 2 - Pass Details

Date: 11 May 2026
Orbit: 553 x 2894 km, 32.9° (Epoch: 6 June)

Event Time Altitude Azimuth Distance (km) Brightness Sun altitude
Rises 05:19:17 0° 198° (SSW) 6,290 - -34.8°
Reaches altitude 10° 05:24:30 10° 187° (S) 5,505 - -34.8°
Maximum altitude 05:36:53 25° 140° (SE) 4,550 - -34.6°
Exits shadow 05:38:32 25° 132° (SE) 4,562 11.1 -34.6°
Drops below altitude 10° 05:48:57 10° 94° (E) 5,413 11.9 -34.3°
Sets 05:53:54 0° 82° (E) 6,174 12.4 -34.1°
